Tracking 19563 objects as of 20-Mar-2019
HD Live streaming from Space Station
objects crossing your sky now

COSMOS 1228

Track COSMOS 1228 now!
10-day predictions
COSMOS 1228 is classified as:


NORAD ID: 12107
Int'l Code: 1980-102A
Perigee: 1,400.8 km
Apogee: 1,470.9 km
Inclination: 74.0 °
Period: 114.4 minutes
Semi major axis: 7806 km
RCS: 0.7206 m2 (medium)
Launch date: December 23, 1980
Source: Commonwealth of Independent States (former USSR) (CIS)
Launch site: PLESETSK MISSILE AND SPACE COMPLEX (PKMTR)
aabbcc
Your satellite tracking list
Your tracking list is empty




NASA's NSSDC Master Catalog

Two Line Element Set (TLE):
1 12107U 80102A   19078.47919432 -.00000003 +00000-0 +78196-4 0  9995
2 12107 073.9934 269.7185 0044899 052.2797 331.8548 12.58600580756827
Source of the keplerian elements: AFSPC